Wind_Speed
12 11 11 9 8 7 6 5 4 4 4 6 7 7 7 6 6 5 4 5 6 7 7 7 7 8 9 11 12 13 12 12 11 10 9 9 8 7 6 5 4 3 3 3 4 4 4 6 7 9 10 10 11 11 11 11 10 10 10 9 9 9 9 8 8 8 8 8 8 8 9 9 9 10 10 11 11 11 12 12 13 14 14 15 16
11 11 10 9 8 7 7 5 4 4 5 7 7 7 7 7 6 5 4 5 6 6 6 7 7 9 10 11 12 12 11 11 10 9 9 8 7 6 5 3 2 2 2 3 4 5 6 7 8 9 10 11 11 10 10 10 9 9 9 8 8 8 8 8 7 7 7 8 8 8 9 9 10 10 10 11 11 11 12 12 13 14 15 15 16
11 10 9 9 8 8 7 5 4 4 6 7 8 7 7 7 5 4 4 5 6 6 6 7 8 9 10 11 11 11 10 9 9 8 8 7 6 5 3 2 2 2 3 4 5 6 7 8 9 9 10 10 10 9 9 9 9 8 8 8 8 8 8 7 7 7 7 8 8 9 9 9 10 10 11 11 11 11 12 13 13 14 15 15 16
11 9 9 9 9 8 7 5 4 4 6 8 8 8 8 6 5 4 4 5 6 6 7 8 8 10 10 10 10 9 9 8 7 8 7 6 5 3 2 2 2 3 5 6 6 7 8 8 8 9 9 9 9 9 9 8 8 8 8 7 7 7 7 7 7 7 8 8 9 9 10 10 10 10 11 11 11 11 12 12 13 13 14 15 16
11 10 10 10 10 8 7 4 4 5 7 8 8 8 7 5 5 4 4 5 6 7 8 8 9 9 10 9 9 8 8 7 7 6 6 5 3 2 2 3 4 5 5 6 7 8 8 8 8 8 9 9 9 8 8 8 7 7 6 6 6 7 7 7 7 7 8 9 9 9 9 10 10 11 11 11 11 11 11 11 12 13 14 15 16
11 11 11 11 10 9 6 5 4 6 7 8 8 8 7 5 5 5 5 6 8 9 9 9 8 9 9 9 8 7 6 6 6 5 4 2 1 1 3 4 5 6 6 6 7 8 8 8 8 9 9 8 8 7 7 6 6 6 6 6 7 7 7 7 8 8 9 9 9 9 9 9 10 10 10 10 11 11 11 11 12 13 14 15 16
12 12 12 12 11 9 6 5 5 6 8 9 9 8 6 6 6 6 6 7 9 9 9 8 8 8 8 8 7 7 6 5 4 3 2 0 1 2 4 5 6 6 7 7 7 8 8 9 9 9 8 8 7 6 6 5 5 5 6 6 7 8 8 9 9 9 9 9 9 9 9 10 10 10 10 11 11 11 11 11 12 13 14 14 16
12 12 13 13 12 9 7 6 6 7 8 9 10 9 7 6 7 7 7 8 9 9 8 7 7 8 8 7 7 6 5 4 3 1 1 2 3 3 4 5 6 7 7 8 8 8 9 8 8 7 7 6 5 5 5 5 5 6 6 7 8 8 9 10 10 10 10 10 10 10 10 10 10 10 10 10 11 11 11 11 12 13 14 14 14
12 12 13 13 12 9 7 7 7 8 9 10 10 10 8 7 8 8 8 9 9 9 8 7 7 8 7 7 6 6 5 4 2 1 2 3 4 4 5 6 7 8 8 8 8 8 8 7 6 6 5 5 5 5 6 7 7 8 8 8 9 9 9 9 10 10 10 10 10 10 10 10 10 10 10 10 10 11 11 12 13 14 15 16 16
11 11 12 12 11 9 8 8 8 9 9 10 11 11 9 8 9 9 9 10 9 9 7 7 8 8 7 6 6 5 5 4 3 3 4 4 4 5 6 7 8 8 8 8 7 7 6 5 4 4 3 4 4 5 6 7 8 9 9 9 9 9 9 9 10 10 11 11 11 11 11 11 11 11 11 11 11 11 12 12 13 13 14 17 19
11 12 12 12 10 10 9 9 9 10 10 11 11 11 10 9 10 11 10 10 10 9 7 7 8 8 7 6 6 6 5 4 3 4 5 5 5 6 7 8 9 8 8 7 6 5 4 3 2 2 1 2 3 4 5 6 7 7 8 8 9 9 9 9 10 10 11 11 11 12 12 12 12 12 12 12 12 12 13 13 14 14 14 15 17
10 10 9 9 10 9 9 9 9 10 11 11 11 11 11 10 11 11 11 11 10 9 8 8 9 9 7 6 6 6 5 4 4 6 6 6 6 7 8 9 9 8 7 6 5 4 3 2 1 0 0 1 2 3 4 5 6 7 7 8 8 9 9 10 10 10 11 11 11 12 12 12 12 13 13 13 13 13 14 14 15 16 17 16 16
8 7 7 8 9 8 8 8 9 10 11 11 11 11 11 11 11 12 12 12 11 10 9 9 9 9 8 7 7 7 6 5 5 7 7 7 7 8 9 9 8 7 6 5 4 3 2 2 2 2 2 2 3 4 4 5 6 7 8 8 8 9 9 10 10 10 11 11 11 11 12 12 13 13 14 14 14 15 15 16 16 17 18 19 19
7 7 7 7 8 7 8 8 9 9 10 10 11 11 11 11 11 12 13 13 12 10 10 9 10 9 8 8 7 7 7 6 6 8 8 8 8 9 9 9 8 7 6 5 4 3 3 3 4 4 4 4 3 4 4 5 6 7 8 8 8 9 9 10 11 11 11 11 11 12 12 12 13 14 14 15 15 16 16 17 17 18 19 20 22
8 7 6 6 7 7 7 8 8 9 9 10 10 11 11 11 11 12 13 13 12 11 11 10 10 10 9 9 8 8 8 7 7 8 9 9 9 10 10 10 9 8 6 5 5 4 5 5 5 5 5 5 4 4 4 5 6 7 7 8 8 9 10 10 11 11 12 12 12 13 13 13 14 14 15 16 16 17 18 18 19 20 21 22 23
8 7 5 5 6 6 7 8 8 8 9 10 10 11 11 11 11 12 13 13 12 12 11 11 10 10 10 10 9 9 9 8 8 8 10 10 10 11 11 11 10 8 7 7 6 6 6 7 7 6 6 5 5 4 4 4 5 6 7 8 9 9 10 11 11 12 12 13 13 13 14 14 15 15 16 17 18 19 19 20 21 22 23 24 25
7 7 5 4 6 7 8 8 8 9 9 10 11 11 11 11 11 12 12 13 12 12 12 11 11 11 11 10 10 9 9 9 9 9 10 11 11 11 12 12 11 10 8 8 8 8 8 9 8 7 6 6 5 4 4 4 5 6 6 7 8 9 10 11 12 13 13 14 14 15 16 16 17 17 18 19 20 21 21 22 23 23 24 25 27
8 7 4 3 5 7 8 9 9 9 9 9 11 12 12 11 12 12 13 13 13 13 13 12 12 12 12 11 10 10 10 10 10 10 10 11 11 12 12 12 12 11 10 9 9 10 10 10 10 8 7 6 6 5 5 5 6 6 7 8 9 10 11 12 13 14 15 15 16 17 17 18 19 19 20 21 22 22 23 24 24 25 26 27 28
8 8 6 4 5 7 9 10 10 9 9 9 10 12 13 12 12 12 13 13 13 14 13 13 13 13 13 12 11 11 10 10 11 11 11 11 12 12 13 13 12 11 11 10 10 11 11 11 11 9 8 7 7 7 6 7 7 8 9 10 11 11 12 13 14 15 16 17 18 18 19 20 20 21 21 22 23 24 24 25 26 27 27 28 29
9 10 9 7 7 8 9 10 11 10 9 9 9 11 13 13 12 13 14 14 14 14 14 14 14 14 14 13 13 11 11 11 12 12 12 12 12 12 13 13 13 12 12 11 11 12 12 12 12 10 9 8 8 8 8 9 10 10 11 12 13 14 14 15 16 16 17 18 18 19 20 20 21 22 22 23 24 24 25 26 26 27 28 29 30
10 11 12 11 9 10 11 11 12 11 9 10 10 11 13 14 13 13 14 15 15 15 15 14 14 15 15 15 14 13 11 11 12 12 13 13 13 13 14 14 14 13 13 12 12 13 13 13 13 11 10 10 10 11 11 11 12 13 13 14 15 16 16 17 17 18 19 19 20 20 21 21 22 23 24 24 25 26 26 27 28 28 29 30 30
11 12 14 14 12 12 12 12 12 11 10 11 11 11 13 13 13 13 15 16 16 17 16 15 15 16 16 16 15 14 13 12 12 13 13 14 14 14 14 15 15 14 14 14 14 14 14 13 13 12 11 11 12 13 13 14 15 15 16 16 17 18 18 19 19 20 20 21 21 21 22 23 24 24 24 25 25 26 26 27 28 28 30 30 31
10 12 14 15 13 12 13 13 13 12 10 11 12 12 13 13 14 14 15 16 17 18 17 17 16 16 17 17 17 16 15 13 13 13 14 14 15 15 16 16 15 15 15 15 15 15 15 14 14 13 13 13 14 15 15 16 17 17 18 18 19 20 20 20 21 21 22 22 22 22 23 25 26 26 26 26 26 26 26 27 28 28 29 30 31
11 12 14 14 13 13 14 15 14 12 10 11 12 13 14 14 15 15 15 16 17 18 19 18 17 17 17 18 18 18 17 15 14 14 14 15 15 16 16 16 16 16 16 16 16 16 16 15 15 14 15 16 16 16 17 18 18 19 19 20 20 21 21 21 21 22 22 23 23 23 24 25 27 27 28 27 27 27 28 28 29 30 30 31 32
12 13 14 14 14 15 15 16 15 13 12 12 14 14 14 15 15 16 16 16 17 19 20 20 19 18 18 19 19 19 19 17 16 15 15 15 16 16 17 17 17 17 17 17 18 18 17 16 16 16 17 18 18 18 18 18 19 19 20 20 21 21 21 21 21 22 22 22 23 23 25 26 28 28 29 28 28 28 29 30 30 31 31 31 32
13 15 16 16 15 15 16 16 16 15 14 15 15 15 15 15 15 16 17 17 18 19 20 21 20 19 19 19 19 20 20 19 18 17 16 16 16 17 17 17 17 17 18 18 19 19 18 17 17 18 19 20 19 19 19 19 19 19 20 20 21 21 21 21 22 22 22 22 22 23 25 27 28 29 29 29 29 29 29 30 31 31 32 32 32
13 16 16 16 16 16 16 17 17 17 17 17 16 15 15 15 16 16 17 18 19 19 20 21 21 21 20 20 20 21 21 21 20 19 17 16 16 17 17 17 17 18 18 19 19 19 19 19 19 20 20 20 19 19 19 19 19 19 20 20 21 21 21 21 22 22 23 23 24 25 27 28 28 29 29 29 29 30 30 30 31 32 32 33 33
14 15 15 15 16 16 16 16 18 19 19 19 17 15 14 15 15 16 17 19 20 20 21 21 22 23 22 21 21 21 22 22 21 20 18 17 17 17 17 17 18 18 19 20 20 20 20 20 21 21 21 20 20 20 20 20 19 20 20 21 21 21 21 22 22 23 24 25 26 26 28 28 29 29 29 29 29 30 30 31 31 32 32 33 34
16 16 15 14 15 16 16 17 19 20 20 21 19 16 14 14 15 16 17 19 21 21 21 21 22 23 23 22 21 21 22 22 22 21 20 19 18 18 18 18 18 19 19 20 21 21 21 21 21 22 21 21 20 21 20 19 19 20 21 21 21 21 22 23 23 24 25 25 25 26 27 28 29 29 29 29 30 30 30 31 31 32 33 34 34
17 16 14 14 16 15 15 17 19 20 21 22 20 17 15 15 15 16 17 19 21 22 21 21 22 24 24 23 21 21 22 22 22 22 21 21 20 19 18 18 18 19 19 20 21 21 21 21 21 22 22 21 21 22 21 19 18 19 21 21 22 23 23 23 23 23 24 25 25 26 27 29 29 29 29 29 30 30 31 32 32 33 34 35 36
18 17 16 15 15 15 15 17 19 21 23 23 22 18 15 15 15 16 17 19 20 21 22 22 23 24 25 23 22 22 22 22 22 23 22 22 21 21 20 19 19 19 20 20 21 21 21 22 22 22 22 22 23 23 22 20 19 20 21 22 23 23 23 23 23 24 25 26 26 27 27 29 29 30 30 30 31 31 31 33 34 35 36 36 37
17 17 16 15 13 13 15 16 19 21 21 21 22 21 17 16 16 16 17 18 19 20 22 22 23 24 25 24 23 23 22 22 22 23 23 23 23 22 22 21 21 21 21 21 21 21 21 22 22 22 22 23 23 24 24 23 21 21 21 22 22 23 23 24 24 25 26 27 27 27 28 29 29 29 30 32 32 32 32 34 36 36 37 38 38
17 15 15 14 12 13 14 16 18 19 18 18 20 21 20 18 17 17 17 17 18 20 21 22 23 24 24 25 24 24 23 23 23 23 23 23 23 23 23 23 22 22 22 22 22 21 22 22 23 24 24 23 23 24 26 25 24 23 22 21 21 22 23 24 25 27 28 29 28 27 28 29 30 30 31 32 33 33 34 35 37 39 39 40 40
22 21 18 15 13 13 14 15 16 17 17 17 18 19 20 20 18 17 16 16 17 19 21 21 22 23 24 25 25 24 24 24 24 23 23 23 24 24 24 24 24 24 23 23 23 23 23 24 24 24 24 24 24 25 26 26 26 26 24 21 21 22 23 25 26 28 29 29 29 28 29 29 30 31 32 33 34 35 35 36 37 39 40 40 41
22 22 21 19 16 13 13 15 17 16 16 16 16 17 20 21 20 18 17 17 18 19 21 22 21 22 24 25 25 25 25 24 24 23 23 23 24 24 25 25 25 25 24 24 25 25 25 25 25 25 25 25 25 25 25 26 27 26 24 22 22 23 24 26 28 29 29 29 29 29 30 30 31 32 33 34 35 36 37 37 38 39 40 40 41
18 19 20 21 19 16 14 16 17 17 15 14 16 17 18 19 18 17 18 18 18 19 21 22 21 22 23 25 25 25 24 24 24 23 23 24 24 25 26 26 26 26 25 26 26 26 27 26 26 25 25 26 26 26 26 26 27 26 24 24 25 26 26 28 30 30 30 29 30 30 31 32 33 34 35 36 37 37 38 39 39 40 40 41 41
16 18 20 20 19 17 17 16 17 18 16 14 14 16 17 17 16 16 17 17 17 18 21 21 20 22 23 25 25 24 24 24 24 23 24 24 25 26 27 28 27 26 26 26 26 27 27 27 26 25 25 26 26 26 26 26 26 25 25 26 29 29 29 30 31 31 31 31 31 32 33 34 35 35 36 37 38 39 40 40 41 42 42 42 42
15 16 17 17 16 16 17 17 18 19 19 17 16 14 14 15 15 15 15 15 15 18 20 20 20 21 23 25 25 24 24 23 23 23 24 25 26 27 28 28 27 26 26 26 27 27 26 26 26 25 25 26 26 26 26 26 26 27 28 29 30 30 30 31 32 32 32 32 32 33 33 35 36 36 37 38 40 41 42 42 43 43 43 43 44
14 14 14 13 12 13 14 16 17 17 16 18 18 15 14 14 14 13 13 13 15 18 20 20 20 21 22 23 23 22 22 23 23 23 24 25 26 27 27 27 26 26 26 27 27 27 26 27 27 26 26 26 26 26 26 26 27 29 31 31 31 30 30 31 32 32 33 33 33 33 34 35 38 38 38 38 40 42 43 43 43 43 43 44 45
14 13 12 11 10 10 11 13 14 13 13 16 17 16 16 16 13 11 11 12 16 18 19 20 21 21 22 21 20 20 21 22 23 23 23 24 25 25 25 26 26 27 27 28 27 27 27 28 28 27 26 26 27 27 27 28 29 31 31 31 31 30 31 32 32 33 34 34 34 34 34 36 39 40 39 39 40 41 41 41 41 42 43 44 46
14 13 12 11 8 6 8 10 11 10 10 12 12 14 17 17 14 12 12 13 14 16 17 19 21 20 20 20 19 18 20 22 23 23 23 23 24 25 25 26 27 28 28 28 27 27 28 28 28 27 26 26 28 28 27 28 30 31 31 30 30 31 32 33 33 33 34 35 35 35 35 37 39 41 41 41 40 40 39 39 41 42 43 45 46
17 16 15 13 9 6 7 9 10 11 10 10 10 10 13 14 13 12 13 13 14 14 15 18 20 19 19 19 18 18 20 22 23 23 23 23 24 26 26 27 28 28 28 28 28 27 27 27 27 27 27 27 28 28 27 28 30 32 32 31 31 32 33 34 34 34 35 36 37 37 37 37 39 40 41 42 41 40 39 41 43 44 44 45 45
17 18 18 17 14 11 10 11 12 13 12 11 11 11 11 13 13 12 12 13 13 12 14 17 18 17 17 18 20 21 22 24 24 24 24 25 26 27 28 28 28 28 28 28 27 27 27 27 28 29 28 28 28 27 27 28 32 33 32 32 34 34 35 35 35 36 37 38 38 39 39 39 39 40 40 40 39 40 41 43 44 44 44 45 45
16 17 18 20 19 17 16 15 15 14 14 14 14 14 15 17 17 16 16 16 15 14 14 16 17 18 18 19 23 25 24 24 24 25 26 27 28 29 29 27 26 27 28 28 28 29 29 29 29 29 29 29 29 28 27 29 33 35 34 34 35 36 37 37 37 38 40 40 40 40 40 40 40 40 39 39 39 41 43 44 44 44 45 45 46
16 16 17 20 21 20 19 20 19 17 15 15 15 16 18 20 21 20 20 21 20 18 17 17 19 20 21 22 24 25 25 23 23 25 28 29 31 30 28 27 28 29 30 31 31 29 29 29 28 28 29 29 30 30 29 30 33 35 36 36 38 38 39 39 40 41 42 43 42 42 41 40 39 39 39 40 41 44 45 46 45 45 45 46 47
21 20 19 20 22 20 20 21 22 19 17 16 16 17 18 19 21 22 22 23 24 23 21 19 21 23 25 25 25 26 26 26 26 28 30 32 33 32 29 29 31 31 30 30 29 28 29 29 29 29 30 31 32 32 31 31 34 37 38 38 39 40 40 41 42 43 44 44 43 42 40 39 39 39 40 42 43 45 46 46 45 45 46 47 48
25 25 24 24 24 23 22 22 22 22 22 22 21 20 20 21 23 24 23 22 23 25 25 23 24 26 27 27 27 27 27 27 28 30 32 32 32 32 31 30 30 30 28 27 28 30 31 31 30 31 32 33 34 34 34 34 36 38 40 40 40 41 42 43 44 45 45 44 42 40 39 39 41 42 43 44 46 46 46 46 46 46 47 48 48
27 27 28 27 27 26 25 24 24 24 25 26 24 21 21 23 24 24 23 22 23 26 26 26 27 27 28 30 30 30 29 28 29 31 32 30 29 30 31 30 29 28 28 29 31 33 33 31 32 33 35 36 37 37 38 38 38 39 40 42 42 43 44 44 45 45 44 43 41 40 40 41 43 45 46 47 48 48 47 46 47 47 48 48 49
30 30 30 30 30 30 29 27 27 27 27 28 27 25 24 24 23 23 24 24 25 27 28 28 27 27 29 30 31 31 31 32 32 33 33 32 30 30 30 28 27 28 30 32 33 34 34 34 36 37 37 38 39 40 41 41 41 41 41 42 43 44 44 44 44 44 43 43 42 41 41 42 44 46 47 48 48 48 47 47 48 49 49 48 48
34 33 33 33 33 33 32 32 31 31 31 31 31 30 30 28 27 27 28 28 27 28 29 29 27 27 29 31 31 31 31 31 31 31 31 30 29 29 29 28 29 31 33 34 36 37 38 38 38 39 40 41 41 42 43 44 44 45 44 44 43 43 44 44 44 44 43 42 42 41 42 44 46 47 47 47 47 47 48 48 49 49 48 47 47
34 35 35 36 36 36 35 35 35 35 34 34 34 34 33 32 31 30 31 31 30 29 30 30 29 28 29 31 31 32 32 32 32 32 32 31 30 31 33 34 34 35 36 37 38 39 40 39 39 40 42 43 43 44 46 47 46 45 45 44 43 43 44 44 43 41 40 41 42 44 46 47 47 46 46 47 48 48 49 49 48 48 47 48 50
Wind_Direction
245 248 249 246 237 225 217 221 231 253 280 292 298 300 298 293 283 277 259 237 229 231 241 256 275 290 302 309 312 315 319 319 320 323 327 330 335 341 339 339 342 349 9 30 48 67 85 96 101 100 99 98 94 91 88 85 81 77 73 70 64 60 54 48 43 38 34 29 24 20 14 9 6 3 1 359 358 357 357 356 356 357 358 357 356
244 246 246 239 226 213 210 216 232 258 282 290 294 297 293 290 285 275 249 231 229 233 244 260 278 293 300 305 309 315 319 318 320 324 327 332 339 343 342 345 355 13 43 63 76 91 100 101 100 97 95 93 89 86 81 77 72 68 65 60 57 55 51 46 40 33 26 19 13 8 4 0 358 357 356 356 355 354 354 355 356 358 357 356 354
245 245 241 229 214 204 205 211 235 267 286 289 295 296 291 290 283 267 241 228 231 237 248 263 279 292 297 302 309 315 317 316 320 324 328 336 343 345 349 6 38 70 82 90 97 104 105 101 96 91 89 85 81 77 72 68 64 61 59 55 52 48 42 34 26 17 11 7 2 359 356 354 353 352 353 353 352 352 352 353 355 356 355 354 351
246 244 236 220 204 200 204 212 242 273 288 292 299 296 289 287 275 257 237 231 238 244 251 263 277 287 293 301 309 313 314 315 320 325 332 342 348 352 15 71 95 100 102 106 108 109 106 99 93 86 82 77 72 68 65 63 60 57 53 49 43 36 27 18 9 1 356 356 354 352 350 348 349 349 349 350 349 349 350 350 352 352 352 351 348
242 237 226 212 200 201 207 221 251 276 287 292 297 292 285 279 264 250 237 237 244 248 253 262 274 283 292 301 308 311 311 314 322 328 336 347 354 19 87 111 117 119 118 116 112 108 102 96 88 82 76 71 67 64 62 60 55 48 40 32 26 18 8 359 352 348 348 347 346 345 345 344 345 345 345 345 344 344 345 346 347 348 347 346 345
235 229 217 206 200 202 211 229 257 275 285 289 290 287 281 269 255 246 238 240 246 249 254 261 270 281 291 299 304 307 307 313 323 328 338 353 27 101 119 126 132 132 126 119 111 103 97 91 85 79 74 69 65 60 55 48 39 30 19 10 2 353 344 340 339 340 339 336 336 339 341 342 341 340 340 339 340 340 341 342 343 344 343 342 340
230 222 209 202 201 206 216 238 262 275 283 287 288 286 277 261 250 243 238 242 248 251 254 259 269 281 289 296 299 300 302 311 319 325 336 19 137 136 136 139 142 137 127 119 110 103 97 91 85 80 74 67 59 49 38 27 15 5 357 350 344 339 336 335 334 334 331 329 333 336 338 339 338 337 336 335 335 335 336 337 336 336 336 337 337
227 219 209 204 205 210 224 245 262 273 281 285 285 283 272 257 249 244 241 245 251 254 253 257 269 278 285 291 293 293 297 305 310 304 236 175 168 161 154 153 148 137 127 120 113 105 99 91 85 77 67 57 43 27 12 358 350 345 342 339 337 337 336 335 332 331 329 331 333 334 335 335 335 333 331 331 330 330 330 329 328 328 329 332 334
225 220 215 213 212 218 232 249 261 270 278 281 281 278 268 255 249 245 243 247 253 255 253 258 268 274 278 283 286 286 291 296 285 220 192 185 185 180 169 160 149 137 129 123 116 108 100 90 81 69 56 42 25 10 358 349 346 344 341 339 336 335 335 335 334 332 331 332 332 332 332 332 331 329 327 326 325 324 322 320 321 324 325 327 329
227 223 218 218 222 231 241 252 262 269 274 276 276 273 265 254 249 246 244 247 252 254 252 258 266 269 271 275 279 279 283 284 252 203 194 193 195 190 177 163 148 138 133 127 120 114 105 97 86 69 50 31 15 4 357 351 347 344 340 338 334 333 333 334 335 333 333 333 332 332 331 329 327 326 325 323 320 317 314 312 313 317 321 322 324
228 224 218 220 228 240 249 257 263 268 271 272 272 270 264 254 248 245 244 246 251 251 248 256 263 264 264 268 273 272 276 272 238 206 200 199 198 192 179 166 154 145 142 137 132 127 119 114 107 89 59 25 8 358 352 347 343 339 336 334 331 330 330 332 333 333 333 332 332 331 328 326 324 322 321 318 315 312 309 308 308 309 312 313 315
230 225 220 227 233 240 250 258 262 265 269 270 270 267 260 252 247 243 242 243 248 247 243 252 260 260 258 262 266 266 268 261 234 212 206 203 199 193 185 175 165 157 156 155 152 150 150 152 170 226 329 4 357 350 344 340 337 335 334 332 331 330 330 331 332 331 331 329 328 327 325 323 321 319 318 316 313 309 307 306 304 304 305 304 306
231 225 221 231 235 238 245 252 256 260 266 270 270 266 257 248 243 240 240 240 243 242 239 248 256 256 255 256 260 263 261 253 233 219 212 207 201 197 194 189 180 173 175 180 184 191 215 249 278 293 308 330 343 340 336 335 335 334 332 331 328 328 328 328 328 327 326 325 324 324 323 321 320 318 317 315 313 310 307 304 302 301 301 302 304
232 225 220 228 235 239 243 249 255 258 263 267 270 268 261 251 242 238 238 239 238 236 236 244 252 252 252 252 255 259 258 249 233 223 218 213 207 205 205 203 198 192 194 205 216 234 261 278 292 300 306 314 321 326 327 329 332 331 328 327 325 325 325 324 323 322 322 321 321 322 321 320 319 319 317 316 313 311 308 305 303 303 303 303 305
234 226 222 234 243 248 251 252 256 259 263 266 267 268 264 258 247 238 237 238 236 233 234 241 247 247 248 249 252 256 257 251 237 228 224 219 214 213 215 215 214 210 213 226 240 256 271 280 288 293 296 300 304 312 318 324 328 328 326 325 325 325 325 324 324 323 322 321 320 319 319 319 318 317 315 314 313 311 309 308 307 307 307 307 308
241 236 235 249 252 254 259 261 261 262 265 267 268 269 266 261 251 241 237 237 235 233 235 240 243 243 245 247 250 254 256 252 242 233 230 226 221 220 223 224 225 226 229 240 254 266 275 280 282 284 286 289 295 303 312 321 324 325 324 324 325 326 326 326 326 326 326 324 322 319 318 317 315 315 315 314 314 313 312 312 311 311 310 310 310
255 248 236 239 250 253 260 266 265 262 264 269 272 271 269 263 253 243 237 236 235 234 236 241 241 240 242 244 248 252 255 254 247 239 235 233 230 228 229 231 233 236 240 249 261 270 277 280 281 280 281 283 288 294 301 309 313 315 316 317 318 320 321 323 325 326 328 328 327 324 321 319 317 317 317 316 316 315 314 313 312 311 310 311 312
271 266 249 230 248 259 264 267 264 261 262 266 269 270 267 262 253 243 238 236 234 234 238 242 241 238 238 240 244 249 253 255 251 245 240 239 238 236 236 237 240 244 248 256 266 274 280 282 281 279 278 280 282 284 289 295 297 301 303 305 309 312 315 318 321 324 327 329 329 327 325 322 320 319 318 317 316 315 315 314 314 313 312 312 312
284 283 276 253 250 261 264 266 264 262 261 258 262 267 267 263 254 243 238 235 233 234 238 244 243 239 238 237 240 246 250 254 253 249 245 243 243 243 242 242 244 247 254 260 270 279 284 285 282 277 275 276 279 282 285 288 289 292 295 299 303 307 311 314 318 320 323 325 326 326 325 323 320 318 316 315 314 314 315 315 315 314 313 313 312
280 279 277 267 261 265 268 272 273 271 268 263 261 265 265 262 253 242 238 236 234 234 239 244 245 241 238 236 236 241 246 253 255 252 249 248 247 248 247 247 247 250 256 263 272 281 286 286 282 277 277 279 282 285 285 286 287 289 292 297 300 303 307 309 312 315 317 319 320 321 321 320 318 316 314 313 313 314 315 315 315 314 314 314 314
272 275 279 278 276 277 278 282 282 280 279 274 264 261 261 260 254 244 238 237 236 237 239 244 246 243 240 238 236 238 242 250 255 255 253 251 251 252 252 251 252 253 259 266 274 281 285 284 282 281 284 286 288 287 286 286 286 287 290 293 296 299 302 305 308 311 312 313 315 316 317 317 316 315 314 313 313 314 315 316 316 316 316 316 315
277 279 282 283 283 282 282 282 283 280 276 271 263 258 259 259 258 250 242 238 237 238 241 244 246 244 242 240 238 238 240 245 253 256 256 255 255 256 257 256 256 257 261 267 274 280 282 281 281 283 287 290 290 289 289 288 288 288 290 292 294 297 300 303 306 308 309 310 311 313 315 316 316 315 314 313 313 314 314 315 315 315 315 314 314
279 279 281 285 285 281 278 279 281 278 270 267 263 261 258 256 256 254 248 242 239 239 240 243 246 245 243 243 241 240 240 243 250 256 258 259 259 259 260 259 260 260 263 268 274 278 279 277 278 282 286 288 289 289 290 290 290 290 291 292 294 296 298 302 304 306 308 308 308 309 312 315 316 315 314 313 313 313 313 313 313 314 314 315 316
280 279 279 283 281 275 274 276 278 278 273 268 263 259 257 253 252 253 252 248 243 240 240 242 245 246 244 243 243 243 243 243 247 254 259 261 262 262 262 261 262 263 266 271 274 276 276 275 277 282 285 287 288 289 290 291 291 291 291 293 294 295 298 301 304 306 306 307 307 309 311 314 315 315 314 314 313 313 314 314 315 315 317 317 318
281 280 277 279 279 274 274 277 279 281 278 271 262 258 257 255 252 252 253 252 248 243 241 241 244 246 244 244 243 244 245 245 247 252 257 261 263 264 264 264 264 266 269 271 273 274 274 274 278 283 287 288 289 290 291 291 291 292 293 294 295 297 300 302 304 305 305 305 306 308 311 314 315 315 314 314 313 314 315 315 316 317 318 318 318
286 288 286 286 286 281 279 281 283 282 279 274 267 261 259 256 254 253 253 253 251 247 243 241 242 244 245 244 244 244 245 246 248 250 254 259 263 265 266 266 266 267 268 269 271 272 273 274 278 283 286 288 289 291 292 291 292 293 295 296 298 299 300 302 304 304 304 304 304 306 309 312 313 313 313 313 313 313 314 315 317 317 317 317 316
294 294 294 293 292 287 282 281 282 281 279 276 270 262 260 257 254 253 253 253 253 251 247 243 242 243 245 245 244 245 246 247 248 251 254 258 263 266 267 267 268 268 269 270 271 272 274 276 280 284 285 287 289 290 290 291 293 296 297 298 299 299 299 301 302 303 304 303 302 303 306 308 310 311 311 311 312 313 314 315 317 317 316 316 316
289 286 288 289 288 285 283 282 282 280 278 277 272 265 261 259 255 253 253 254 254 253 250 246 243 243 244 245 245 246 247 249 250 252 255 258 262 266 267 268 269 270 270 272 272 273 275 278 281 283 285 287 288 288 288 291 296 299 300 300 299 298 298 299 301 304 304 304 303 303 304 305 307 308 309 310 311 312 315 316 317 316 315 315 315
281 279 283 284 282 281 283 286 284 279 277 276 273 267 263 261 259 257 256 257 256 256 254 250 245 243 243 245 246 248 249 251 252 254 255 258 261 264 267 269 270 271 272 273 273 275 277 279 282 284 285 286 286 286 289 294 299 300 299 299 297 295 296 298 301 304 305 304 303 303 303 303 305 306 307 308 310 313 315 316 316 315 315 315 314
285 282 284 282 283 284 286 287 282 277 275 272 269 268 265 263 263 261 259 259 257 256 256 253 248 244 243 243 246 248 250 252 254 255 256 258 260 263 266 269 270 272 274 274 275 277 279 280 283 284 284 285 285 288 292 296 298 297 296 295 294 294 295 296 299 301 302 302 302 302 302 302 303 305 306 307 310 313 315 315 315 315 315 314 314
291 289 287 283 286 287 283 280 275 273 275 272 271 276 273 265 265 262 258 258 257 256 256 254 250 247 243 242 244 247 250 252 254 256 257 258 260 263 265 268 270 272 273 274 276 278 280 282 283 283 283 285 287 290 293 294 295 294 293 292 291 293 294 294 295 296 297 298 300 302 302 302 302 304 306 308 310 313 314 314 315 315 315 314 314
283 285 282 275 277 279 274 269 268 270 274 271 269 275 275 268 267 264 259 260 260 259 258 255 253 250 245 243 243 245 248 251 254 257 258 259 261 263 265 267 269 271 272 274 276 278 280 282 283 283 284 285 288 291 292 293 294 294 293 291 290 291 292 293 293 292 293 295 298 301 301 300 302 305 306 308 311 313 314 315 315 315 315 314 313
280 275 269 260 264 272 267 262 265 270 273 271 268 271 272 271 271 267 264 264 263 262 261 258 256 254 249 246 244 245 248 250 252 256 259 261 263 264 266 267 269 271 272 274 276 278 280 282 283 284 285 286 288 289 291 293 294 294 293 291 288 288 288 290 291 291 292 294 297 299 299 299 302 305 306 308 311 313 315 315 316 315 315 314 314
288 284 279 273 274 278 271 267 270 273 275 279 281 277 272 272 275 272 268 266 263 262 261 258 257 255 252 248 245 245 247 249 251 255 259 262 264 265 267 268 269 271 273 275 277 279 280 281 282 283 285 285 286 286 289 292 293 293 293 291 287 286 287 288 289 290 293 295 297 298 298 299 302 304 306 309 311 314 316 316 315 315 314 314 313
290 288 288 286 286 282 272 269 275 279 283 288 290 285 276 273 275 274 270 265 261 261 260 257 254 253 252 250 247 246 248 250 252 256 259 263 266 267 267 268 269 271 273 275 278 279 280 281 282 283 284 284 284 284 286 287 289 291 292 290 287 286 287 288 289 291 294 296 298 298 299 301 303 305 308 310 313 315 316 316 315 313 313 312 311
287 287 286 286 288 284 272 268 272 279 287 288 284 280 275 273 273 271 267 263 260 258 258 256 252 249 249 249 248 247 248 251 253 256 259 262 265 266 267 268 269 271 273 275 276 278 280 281 282 283 283 283 284 285 285 286 288 289 289 289 288 289 291 291 291 293 296 298 298 300 301 303 306 309 311 312 313 314 315 315 314 313 311 311 310
279 281 281 281 283 284 281 277 274 276 279 279 274 272 273 276 275 269 268 269 265 260 257 253 250 249 249 249 249 248 248 251 253 256 259 261 264 266 266 267 269 270 272 273 274 276 279 280 281 282 284 285 285 286 287 287 287 287 286 288 290 292 293 292 293 295 297 298 300 302 303 306 308 310 311 312 313 314 315 315 313 312 312 311 310
272 273 277 280 281 282 285 285 281 278 277 276 274 271 272 277 275 269 272 275 269 261 257 253 249 249 249 250 250 251 251 251 253 255 258 261 264 266 267 269 270 272 272 273 274 275 278 279 280 280 281 282 283 285 285 285 287 288 289 289 291 292 292 292 293 296 298 300 301 303 305 306 307 309 310 311 313 314 314 314 313 313 313 312 311
272 273 276 279 278 276 279 282 284 285 285 284 279 273 273 276 274 270 271 270 264 259 255 252 249 249 249 250 250 253 254 254 254 254 257 260 263 265 268 271 272 272 271 272 273 275 276 276 276 277 278 279 281 282 283 284 287 288 290 291 292 293 293 293 295 297 299 300 302 303 304 306 306 307 309 311 312 313 314 314 314 314 313 312 312
280 279 274 269 269 274 275 275 280 287 295 295 287 281 281 277 271 275 281 275 269 265 262 260 258 256 255 254 253 253 253 253 253 254 256 259 262 265 268 270 271 270 270 270 272 272 273 273 275 277 277 278 280 282 283 286 287 288 289 291 294 295 294 294 296 298 298 299 301 302 304 305 305 306 308 310 311 312 313 314 314 314 314 313 314
283 275 261 249 250 271 279 276 277 279 288 294 290 287 286 277 270 284 298 292 285 284 281 277 274 268 265 264 260 255 251 250 252 254 257 261 264 266 267 267 268 268 268 268 269 270 271 273 274 276 276 278 281 283 285 287 288 288 290 292 293 294 294 294 296 297 298 299 300 302 304 304 304 306 308 309 311 312 313 313 313 313 313 313 314
286 283 272 259 249 249 258 266 268 268 275 286 287 289 290 281 275 288 298 296 298 300 293 284 279 275 272 270 266 258 253 252 254 257 259 260 262 264 264 265 265 266 267 268 269 270 271 271 273 276 278 280 282 284 287 288 287 288 290 291 292 292 292 293 295 296 297 298 300 301 302 302 303 305 306 309 310 311 312 312 313 313 313 313 314
280 281 281 279 275 264 254 254 260 268 280 291 290 289 292 288 282 282 286 289 292 291 284 281 281 278 275 273 269 262 257 255 257 260 261 261 261 260 260 261 263 265 267 268 269 269 269 271 274 278 280 281 282 283 286 287 286 287 289 291 291 291 292 293 295 296 297 297 299 300 301 301 302 303 305 306 308 309 310 312 312 312 312 312 313
277 277 281 282 280 275 268 261 260 265 274 282 285 286 287 287 283 277 276 278 279 276 275 278 281 280 277 272 266 262 260 260 261 264 264 263 261 260 259 261 264 266 266 266 266 267 270 273 275 277 279 280 282 283 284 284 285 287 289 290 290 291 293 295 296 297 297 297 298 299 299 300 301 302 303 304 305 307 309 310 310 310 311 312 313
278 279 279 278 279 280 278 274 270 266 262 262 266 272 278 283 285 283 280 279 278 277 277 277 277 277 275 272 268 267 268 271 273 271 269 268 267 266 265 265 264 263 264 265 266 270 273 274 275 276 278 280 281 282 283 284 285 287 289 290 291 293 295 296 297 297 297 297 298 298 298 299 299 299 300 301 303 306 308 309 309 310 310 310 311
279 279 275 273 276 279 279 278 279 279 274 269 267 267 269 272 277 280 281 281 278 276 276 277 277 275 274 272 271 269 268 268 269 269 269 268 268 270 272 270 267 265 264 265 268 272 275 276 275 276 278 280 281 283 285 286 286 287 288 290 292 293 294 295 296 296 296 296 296 295 295 296 296 296 297 298 302 306 307 307 308 308 308 309 309
281 281 279 278 280 282 283 285 287 288 289 287 281 274 269 268 270 270 270 273 274 273 274 274 272 270 270 271 273 274 270 266 266 268 269 268 267 268 269 269 270 270 267 266 270 275 278 278 276 277 280 282 283 286 287 286 286 288 290 291 292 293 294 295 295 295 295 294 293 292 293 294 294 293 294 297 301 305 306 306 307 307 307 307 307
279 280 281 281 282 282 284 287 287 286 287 285 280 273 269 270 271 270 270 273 271 269 270 272 271 271 273 275 278 278 275 272 272 272 271 269 268 266 264 263 266 271 271 270 274 277 278 276 275 279 282 285 286 288 289 288 289 290 291 293 293 294 294 294 295 294 294 292 291 291 292 291 290 290 294 298 303 306 307 306 306 306 306 305 305
278 279 280 280 282 282 282 283 282 281 281 281 279 278 276 273 271 271 273 274 271 268 269 270 270 272 275 275 274 272 271 272 274 274 272 269 266 265 264 265 269 273 274 275 277 279 279 278 280 282 284 285 288 289 290 291 292 293 293 293 294 294 294 293 292 291 290 289 288 288 288 287 288 291 297 301 304 306 306 305 305 304 304 303 302
276 277 278 279 280 281 282 282 282 280 279 279 280 281 282 280 277 275 274 273 271 271 272 271 270 272 273 272 270 269 270 271 272 272 273 272 269 267 267 270 273 274 275 277 278 279 279 280 282 284 285 287 289 290 291 292 293 294 294 293 293 292 292 291 289 287 286 285 285 285 287 289 292 297 300 302 303 304 304 303 303 302 302 300 300
276 275 277 278 278 278 279 281 281 280 279 279 279 279 279 280 279 278 276 274 272 271 272 272 273 274 274 273 273 274 274 275 274 273 273 273 273 273 273 274 275 275 276 278 279 279 279 280 282 284 286 288 288 290 291 293 294 295 294 293 292 290 288 286 285 283 282 283 286 289 293 296 298 301 301 301 301 301 301 301 300 300 299 299 300
Height
5798 5799 5799 5800 5800 5801 5801 5801 5801 5801 5801 5802 5802 5802 5802 5802 5802 5801 5801 5801 5802 5803 5803 5803 5803 5803 5803 5803 5802 5802 5801 5800 5799 5798 5798 5797 5796 5796 5795 5794 5794 5793 5793 5793 5793 5793 5793 5793 5793 5793 5793 5793 5793 5793 5793 5793 5793 5793 5794 5793 5793 5793 5793 5792 5792 5792 5792 5792 5791 5791 5791 5790 5790 5789 5789 5788 5788 5787 5786 5786 5785 5784 5783 5783 5782
5797 5798 5798 5798 5799 5799 5800 5800 5800 5801 5801 5801 5801 5801 5801 5801 5801 5800 5800 5801 5801 5802 5802 5802 5803 5803 5803 5802 5802 5801 5800 5799 5798 5798 5797 5797 5796 5795 5795 5794 5794 5793 5793 5793 5793 5793 5793 5793 5793 5793 5793 5793 5793 5794 5794 5794 5794 5794 5794 5794 5794 5793 5793 5793 5793 5793 5792 5792 5791 5791 5790 5790 5789 5789 5788 5788 5787 5786 5786 5785 5784 5783 5782 5781 5781
5796 5796 5797 5797 5798 5799 5799 5799 5800 5800 5800 5800 5800 5800 5800 5800 5800 5800 5800 5800 5801 5801 5802 5802 5802 5802 5802 5801 5801 5800 5799 5799 5798 5797 5797 5796 5795 5795 5795 5794 5794 5793 5793 5794 5794 5794 5794 5794 5794 5794 5794 5794 5794 5794 5794 5794 5794 5794 5794 5794 5794 5794 5794 5793 5793 5793 5792 5792 5791 5790 5790 5789 5789 5788 5787 5787 5786 5785 5785 5784 5783 5782 5782 5781 5780
5794 5795 5795 5796 5797 5798 5798 5799 5799 5799 5799 5799 5799 5799 5799 5799 5799 5799 5799 5799 5800 5800 5801 5801 5801 5801 5801 5801 5800 5800 5799 5798 5798 5797 5796 5796 5795 5795 5795 5794 5794 5794 5794 5794 5794 5794 5794 5794 5794 5794 5794 5794 5794 5794 5794 5795 5795 5795 5795 5794 5794 5794 5794 5793 5793 5793 5792 5791 5791 5790 5789 5789 5788 5787 5787 5786 5785 5785 5784 5783 5782 5782 5781 5780 5779
5793 5794 5794 5795 5796 5797 5797 5798 5798 5798 5798 5798 5798 5798 5798 5798 5798 5798 5798 5799 5799 5800 5800 5800 5800 5800 5800 5800 5799 5799 5798 5798 5797 5796 5796 5796 5795 5795 5795 5795 5794 5794 5795 5795 5795 5795 5795 5795 5795 5795 5795 5795 5795 5795 5795 5795 5795 5795 5795 5795 5794 5794 5793 5793 5793 5792 5791 5791 5790 5790 5789 5788 5787 5787 5786 5785 5785 5784 5783 5782 5782 5781 5780 5779 5778
5791 5792 5793 5794 5795 5796 5796 5797 5797 5797 5797 5797 5797 5797 5797 5797 5797 5797 5798 5798 5799 5799 5799 5799 5799 5799 5799 5799 5799 5798 5798 5797 5797 5796 5796 5795 5795 5795 5795 5795 5795 5795 5795 5795 5795 5795 5795 5795 5795 5795 5795 5795 5795 5796 5796 5796 5796 5795 5795 5795 5794 5794 5793 5793 5792 5791 5791 5790 5790 5789 5788 5788 5787 5786 5785 5784 5784 5783 5782 5781 5780 5780 5779 5778 5777
5790 5791 5792 5793 5794 5795 5795 5795 5796 5796 5796 5796 5796 5796 5796 5796 5796 5797 5797 5797 5798 5798 5798 5798 5798 5798 5798 5798 5798 5798 5797 5797 5797 5796 5796 5796 5796 5796 5796 5796 5796 5796 5796 5796 5796 5796 5796 5796 5796 5796 5796 5796 5796 5796 5796 5796 5796 5795 5795 5794 5794 5793 5793 5792 5791 5791 5790 5790 5789 5788 5788 5787 5786 5786 5785 5784 5783 5782 5781 5780 5780 5779 5778 5777 5776
5789 5790 5791 5792 5792 5793 5794 5794 5794 5794 5795 5794 5795 5795 5795 5795 5796 5796 5796 5797 5797 5797 5797 5797 5797 5798 5798 5797 5797 5797 5797 5797 5796 5796 5796 5796 5796 5796 5796 5796 5796 5796 5796 5796 5796 5796 5796 5796 5796 5796 5796 5797 5797 5797 5796 5796 5796 5795 5795 5794 5793 5793 5792 5792 5791 5790 5790 5789 5788 5788 5787 5786 5786 5785 5784 5783 5782 5781 5780 5780 5779 5778 5777 5776 5775
5788 5789 5790 5791 5792 5792 5792 5793 5793 5793 5793 5793 5793 5794 5794 5794 5794 5795 5795 5795 5796 5796 5796 5796 5797 5797 5797 5797 5797 5796 5796 5796 5796 5796 5796 5796 5796 5796 5797 5797 5796 5796 5797 5797 5796 5796 5796 5796 5797 5797 5797 5797 5796 5796 5796 5796 5795 5795 5794 5793 5793 5792 5792 5791 5790 5790 5789 5788 5788 5787 5786 5786 5785 5784 5783 5782 5781 5780 5780 5779 5778 5777 5775 5774 5773
5787 5789 5790 5790 5791 5791 5792 5792 5792 5792 5792 5792 5792 5792 5792 5793 5793 5794 5794 5794 5795 5795 5795 5795 5796 5796 5796 5796 5796 5796 5796 5796 5796 5796 5796 5796 5796 5797 5797 5797 5797 5797 5797 5797 5797 5797 5797 5797 5796 5796 5796 5796 5796 5796 5795 5795 5794 5794 5793 5793 5792 5792 5791 5790 5790 5789 5788 5788 5787 5786 5786 5785 5784 5783 5783 5781 5780 5779 5779 5778 5776 5775 5774 5772 5770
5786 5788 5788 5789 5789 5790 5791 5791 5791 5790 5790 5790 5791 5791 5791 5791 5792 5792 5793 5793 5794 5794 5794 5795 5795 5795 5795 5795 5795 5795 5795 5795 5795 5795 5795 5796 5796 5796 5797 5797 5797 5797 5797 5797 5797 5797 5797 5796 5796 5796 5796 5796 5796 5795 5795 5794 5794 5794 5793 5792 5792 5791 5791 5790 5789 5788 5787 5787 5786 5785 5785 5784 5783 5782 5781 5780 5779 5778 5777 5776 5775 5774 5773 5772 5770
5786 5787 5787 5787 5788 5789 5789 5790 5790 5789 5789 5789 5789 5790 5790 5790 5790 5791 5792 5792 5792 5793 5793 5794 5794 5794 5794 5794 5795 5795 5795 5795 5795 5795 5795 5795 5796 5796 5796 5797 5796 5796 5797 5797 5797 5797 5796 5796 5796 5796 5796 5795 5795 5795 5794 5794 5793 5793 5792 5792 5791 5790 5790 5789 5788 5788 5787 5786 5785 5785 5784 5783 5782 5781 5780 5779 5778 5777 5776 5775 5774 5773 5772 5771 5770
5785 5786 5786 5786 5787 5787 5787 5788 5788 5788 5788 5788 5788 5788 5788 5789 5789 5790 5790 5791 5791 5792 5792 5793 5793 5793 5794 5794 5794 5794 5794 5794 5794 5795 5795 5795 5795 5796 5796 5796 5796 5796 5796 5796 5796 5796 5796 5796 5796 5796 5795 5795 5794 5794 5793 5793 5792 5792 5792 5791 5790 5790 5789 5788 5788 5787 5786 5786 5785 5784 5783 5782 5781 5780 5779 5778 5777 5776 5775 5774 5773 5771 5770 5769 5767
5784 5785 5785 5785 5785 5785 5785 5786 5787 5787 5787 5787 5786 5787 5787 5787 5788 5788 5789 5789 5790 5790 5791 5791 5792 5792 5793 5793 5793 5793 5793 5793 5793 5794 5794 5794 5795 5795 5796 5796 5796 5796 5796 5796 5796 5796 5796 5796 5795 5795 5794 5794 5793 5793 5793 5792 5791 5791 5791 5790 5790 5789 5788 5788 5787 5786 5785 5785 5784 5782 5781 5780 5779 5778 5777 5776 5775 5774 5773 5772 5771 5770 5768 5766 5765
5784 5784 5784 5783 5783 5784 5784 5785 5785 5786 5786 5786 5785 5785 5786 5786 5786 5787 5787 5788 5789 5789 5790 5790 5791 5791 5792 5792 5792 5792 5792 5792 5792 5793 5793 5794 5794 5794 5795 5795 5795 5795 5795 5795 5795 5795 5795 5795 5795 5794 5794 5793 5793 5792 5792 5791 5791 5790 5790 5789 5789 5788 5788 5787 5786 5785 5784 5783 5782 5781 5780 5779 5778 5777 5775 5774 5773 5772 5771 5769 5768 5767 5765 5764 5762
5783 5783 5783 5782 5782 5783 5783 5784 5784 5784 5784 5784 5784 5784 5784 5785 5785 5785 5786 5787 5787 5788 5788 5789 5789 5790 5790 5791 5791 5791 5792 5792 5792 5792 5792 5793 5793 5793 5794 5794 5794 5794 5794 5794 5795 5794 5794 5794 5794 5793 5793 5792 5792 5791 5791 5790 5790 5789 5789 5789 5788 5788 5787 5786 5785 5784 5783 5782 5781 5780 5778 5777 5776 5775 5773 5772 5771 5769 5768 5766 5765 5764 5762 5760 5759
5780 5781 5782 5781 5781 5782 5782 5783 5783 5783 5783 5783 5783 5783 5783 5783 5783 5784 5785 5785 5786 5786 5787 5787 5788 5788 5789 5789 5790 5790 5791 5791 5791 5791 5791 5792 5792 5792 5793 5793 5793 5794 5793 5794 5794 5793 5793 5793 5792 5792 5791 5791 5790 5790 5789 5789 5789 5788 5788 5788 5787 5787 5786 5785 5785 5783 5782 5781 5780 5778 5777 5775 5774 5772 5771 5769 5768 5766 5765 5764 5762 5761 5759 5758 5756
5778 5779 5780 5780 5781 5781 5781 5781 5782 5782 5782 5782 5782 5782 5782 5782 5782 5782 5783 5784 5784 5785 5785 5786 5786 5787 5787 5788 5789 5789 5789 5790 5790 5790 5790 5791 5791 5791 5791 5792 5792 5792 5792 5792 5793 5792 5792 5792 5791 5791 5790 5789 5789 5789 5788 5788 5788 5788 5787 5787 5786 5786 5785 5784 5783 5782 5781 5779 5778 5776 5775 5773 5772 5770 5769 5767 5766 5764 5763 5761 5760 5758 5756 5755 5753
5777 5777 5778 5779 5779 5779 5779 5780 5780 5780 5780 5780 5780 5780 5780 5780 5780 5781 5781 5782 5783 5783 5784 5784 5785 5785 5786 5786 5787 5787 5788 5788 5789 5789 5789 5789 5790 5790 5790 5791 5791 5791 5791 5791 5791 5791 5791 5791 5790 5789 5789 5788 5788 5787 5787 5787 5787 5786 5786 5785 5785 5784 5783 5782 5781 5780 5778 5777 5776 5774 5773 5771 5770 5768 5767 5765 5764 5762 5761 5759 5757 5755 5754 5752 5750
5776 5775 5776 5777 5777 5777 5778 5778 5779 5779 5779 5779 5779 5779 5779 5779 5779 5779 5780 5780 5781 5782 5782 5783 5783 5784 5784 5785 5785 5786 5786 5787 5787 5788 5788 5788 5788 5789 5789 5789 5790 5790 5790 5790 5790 5790 5789 5789 5789 5788 5788 5787 5787 5786 5786 5786 5785 5785 5784 5783 5783 5782 5781 5780 5779 5778 5776 5775 5774 5772 5771 5769 5768 5766 5765 5763 5762 5760 5759 5757 5755 5753 5751 5749 5747
5776 5775 5774 5774 5775 5775 5776 5777 5777 5777 5778 5778 5778 5778 5778 5778 5777 5777 5778 5778 5779 5780 5780 5781 5782 5782 5783 5783 5784 5784 5785 5785 5786 5786 5786 5787 5787 5787 5787 5788 5788 5788 5788 5788 5788 5788 5788 5788 5787 5787 5786 5786 5786 5785 5785 5784 5783 5783 5782 5781 5781 5780 5779 5778 5777 5776 5774 5773 5772 5770 5769 5767 5766 5764 5762 5761 5759 5757 5756 5754 5752 5750 5748 5747 5745
5775 5774 5773 5773 5774 5775 5775 5775 5775 5775 5776 5776 5776 5776 5776 5776 5776 5775 5775 5776 5777 5778 5778 5779 5780 5780 5781 5782 5782 5782 5783 5783 5784 5784 5785 5785 5785 5786 5786 5786 5786 5786 5787 5787 5787 5786 5786 5786 5786 5785 5785 5785 5784 5784 5783 5782 5782 5781 5780 5779 5778 5778 5777 5776 5775 5773 5772 5771 5770 5768 5766 5765 5763 5762 5760 5759 5757 5755 5754 5752 5750 5748 5746 5745 5743
5773 5772 5772 5771 5772 5773 5773 5773 5773 5773 5774 5774 5774 5774 5774 5774 5774 5773 5773 5774 5774 5775 5776 5777 5777 5778 5779 5780 5780 5781 5781 5781 5782 5782 5783 5783 5784 5784 5784 5784 5785 5785 5785 5785 5785 5785 5784 5784 5784 5784 5783 5783 5782 5782 5781 5780 5780 5779 5778 5777 5776 5775 5774 5773 5772 5771 5770 5768 5767 5766 5764 5762 5761 5759 5758 5756 5755 5753 5751 5750 5748 5746 5744 5742 5739
5771 5771 5770 5770 5770 5771 5771 5771 5771 5771 5772 5772 5772 5772 5772 5771 5771 5771 5771 5771 5772 5773 5774 5774 5775 5776 5777 5778 5778 5779 5779 5779 5780 5780 5781 5781 5782 5782 5782 5783 5783 5783 5783 5783 5783 5783 5782 5782 5782 5782 5782 5781 5780 5780 5779 5779 5778 5777 5776 5775 5774 5773 5772 5771 5770 5769 5767 5766 5764 5763 5762 5760 5758 5757 5755 5753 5752 5750 5748 5746 5744 5743 5741 5738 5736
5770 5770 5769 5769 5769 5769 5769 5769 5769 5769 5769 5769 5769 5769 5769 5769 5768 5768 5768 5769 5769 5770 5771 5772 5773 5774 5775 5776 5776 5777 5777 5778 5778 5778 5779 5779 5780 5780 5780 5781 5781 5781 5781 5781 5781 5781 5780 5780 5780 5780 5780 5779 5778 5778 5777 5776 5776 5775 5774 5773 5772 5771 5770 5768 5767 5766 5765 5764 5762 5760 5759 5757 5756 5754 5752 5750 5748 5747 5745 5743 5741 5739 5737 5735 5733
5770 5769 5769 5768 5768 5767 5767 5767 5767 5767 5767 5767 5766 5766 5766 5766 5766 5765 5766 5766 5767 5767 5768 5769 5770 5771 5772 5773 5774 5775 5775 5776 5776 5776 5777 5777 5777 5778 5778 5778 5778 5778 5779 5778 5778 5778 5778 5778 5778 5778 5777 5777 5776 5776 5775 5774 5773 5772 5771 5770 5769 5768 5767 5766 5765 5763 5762 5761 5759 5758 5756 5755 5753 5751 5749 5747 5746 5744 5742 5741 5739 5737 5735 5732 5730
5769 5768 5768 5767 5766 5766 5766 5765 5764 5764 5764 5765 5764 5764 5764 5763 5763 5763 5763 5763 5764 5765 5766 5767 5768 5769 5770 5771 5771 5772 5773 5774 5774 5774 5775 5775 5775 5775 5776 5776 5776 5776 5776 5776 5776 5776 5776 5776 5775 5775 5775 5774 5774 5773 5772 5771 5771 5770 5769 5768 5767 5766 5765 5763 5762 5761 5759 5758 5756 5755 5753 5751 5750 5748 5746 5745 5743 5741 5739 5738 5736 5734 5731 5729 5726
5767 5766 5766 5765 5765 5765 5764 5763 5763 5763 5763 5762 5762 5761 5761 5761 5760 5760 5760 5761 5761 5762 5763 5764 5765 5766 5767 5768 5769 5770 5771 5771 5772 5772 5772 5773 5773 5773 5773 5773 5773 5773 5774 5774 5774 5774 5773 5773 5773 5772 5772 5772 5771 5770 5770 5769 5769 5768 5767 5766 5765 5763 5762 5761 5760 5758 5757 5755 5753 5752 5750 5748 5746 5745 5743 5742 5740 5738 5736 5735 5733 5730 5728 5726 5723
5766 5764 5764 5764 5764 5763 5762 5761 5760 5760 5760 5760 5759 5759 5758 5758 5757 5757 5757 5758 5759 5760 5760 5761 5762 5763 5764 5765 5766 5767 5768 5768 5769 5769 5770 5770 5770 5770 5771 5771 5771 5771 5771 5771 5771 5771 5771 5771 5770 5770 5770 5769 5768 5768 5767 5767 5766 5765 5764 5763 5762 5761 5759 5758 5757 5755 5754 5752 5751 5749 5747 5745 5743 5741 5740 5738 5737 5735 5734 5732 5730 5727 5725 5722 5720
5762 5762 5762 5762 5762 5761 5759 5758 5758 5757 5757 5757 5757 5756 5755 5755 5755 5754 5754 5755 5756 5757 5758 5759 5759 5760 5761 5763 5764 5764 5765 5766 5766 5767 5767 5767 5768 5768 5768 5768 5768 5768 5768 5768 5768 5768 5768 5768 5768 5767 5767 5766 5765 5765 5765 5765 5764 5763 5761 5760 5759 5758 5757 5755 5754 5753 5751 5749 5748 5746 5744 5742 5740 5738 5737 5735 5733 5732 5730 5728 5726 5724 5721 5719 5716
5757 5757 5758 5758 5759 5759 5758 5757 5756 5754 5754 5755 5755 5753 5753 5753 5752 5751 5751 5752 5753 5754 5755 5756 5756 5757 5758 5760 5761 5761 5762 5762 5763 5764 5764 5765 5765 5765 5765 5766 5766 5766 5766 5766 5765 5765 5765 5765 5765 5765 5764 5763 5762 5762 5762 5762 5761 5760 5759 5758 5756 5755 5754 5752 5751 5750 5748 5747 5745 5743 5741 5739 5737 5735 5733 5731 5730 5729 5727 5725 5722 5720 5718 5715 5712
5757 5756 5755 5756 5757 5757 5757 5756 5754 5752 5752 5753 5752 5750 5750 5750 5749 5749 5749 5750 5750 5751 5752 5753 5754 5755 5756 5757 5758 5758 5759 5759 5760 5761 5761 5762 5762 5763 5763 5763 5763 5763 5763 5763 5763 5762 5762 5762 5762 5761 5761 5760 5760 5759 5758 5758 5758 5757 5756 5755 5753 5752 5751 5749 5748 5747 5745 5743 5742 5740 5738 5736 5734 5732 5730 5728 5726 5725 5724 5721 5719 5716 5714 5711 5708
5756 5755 5755 5756 5756 5756 5755 5753 5752 5750 5750 5749 5748 5747 5747 5747 5747 5746 5747 5748 5748 5749 5749 5750 5751 5753 5754 5755 5755 5755 5756 5756 5757 5758 5759 5759 5760 5760 5760 5760 5761 5761 5761 5760 5760 5760 5759 5759 5759 5758 5758 5757 5757 5756 5755 5754 5754 5754 5753 5752 5751 5749 5748 5746 5745 5743 5741 5740 5738 5737 5735 5733 5731 5730 5727 5725 5723 5722 5720 5718 5715 5712 5710 5707 5704
5751 5751 5752 5753 5754 5753 5751 5750 5749 5748 5747 5746 5745 5745 5745 5745 5745 5744 5745 5745 5746 5746 5747 5748 5749 5751 5752 5752 5752 5753 5753 5753 5754 5755 5756 5756 5757 5757 5757 5758 5758 5758 5758 5757 5757 5757 5756 5756 5755 5755 5755 5754 5754 5753 5752 5751 5750 5750 5749 5749 5747 5746 5744 5743 5741 5739 5738 5736 5735 5733 5732 5730 5728 5727 5725 5723 5720 5719 5717 5715 5712 5709 5706 5703 5700
5749 5748 5747 5748 5749 5749 5748 5747 5745 5744 5744 5743 5742 5742 5742 5742 5742 5743 5743 5743 5743 5744 5745 5746 5747 5748 5749 5750 5750 5750 5750 5751 5752 5753 5753 5754 5754 5754 5754 5755 5755 5755 5755 5754 5754 5753 5753 5753 5752 5752 5751 5751 5750 5750 5749 5748 5746 5746 5746 5745 5744 5742 5741 5739 5737 5736 5734 5733 5731 5729 5728 5727 5725 5723 5722 5720 5717 5715 5714 5712 5709 5706 5703 5700 5697
5748 5747 5745 5744 5744 5744 5744 5742 5741 5739 5739 5739 5739 5740 5740 5740 5740 5740 5740 5740 5741 5742 5743 5744 5745 5746 5747 5747 5747 5747 5747 5748 5749 5750 5750 5751 5751 5751 5751 5752 5752 5752 5752 5751 5751 5750 5750 5749 5749 5749 5748 5747 5747 5746 5746 5744 5743 5742 5742 5741 5740 5738 5737 5735 5733 5732 5731 5730 5728 5726 5724 5723 5721 5719 5718 5716 5714 5712 5710 5708 5705 5702 5699 5697 5694
5746 5746 5745 5744 5742 5741 5741 5740 5738 5736 5735 5736 5736 5737 5737 5736 5737 5738 5738 5738 5739 5740 5741 5742 5743 5743 5744 5744 5745 5744 5744 5745 5745 5746 5747 5748 5748 5748 5748 5748 5749 5749 5749 5748 5748 5747 5746 5746 5745 5745 5745 5744 5744 5743 5743 5741 5740 5739 5738 5737 5736 5734 5733 5731 5729 5728 5727 5726 5724 5723 5721 5719 5717 5716 5714 5712 5710 5707 5706 5704 5701 5698 5695 5693 5690
5743 5743 5743 5742 5742 5741 5740 5740 5738 5736 5736 5735 5735 5734 5734 5734 5734 5735 5735 5736 5737 5739 5739 5739 5739 5740 5741 5742 5742 5742 5742 5742 5742 5743 5744 5744 5745 5745 5745 5745 5745 5745 5745 5745 5744 5744 5743 5742 5742 5741 5741 5740 5740 5740 5739 5738 5737 5735 5734 5733 5732 5731 5729 5727 5726 5725 5724 5723 5721 5719 5718 5716 5714 5712 5710 5708 5705 5703 5701 5699 5696 5693 5691 5688 5685
5741 5740 5740 5741 5741 5740 5740 5739 5737 5735 5735 5736 5735 5735 5734 5733 5732 5733 5733 5733 5734 5736 5737 5736 5736 5737 5738 5739 5739 5739 5740 5740 5740 5740 5740 5740 5741 5741 5742 5742 5742 5742 5741 5741 5741 5740 5740 5739 5738 5737 5737 5736 5736 5736 5735 5734 5733 5732 5730 5729 5728 5727 5725 5724 5723 5722 5720 5719 5717 5716 5715 5712 5709 5708 5706 5704 5701 5698 5696 5694 5692 5689 5686 5684 5681
5738 5738 5738 5739 5739 5738 5738 5737 5735 5733 5733 5734 5736 5737 5736 5733 5731 5730 5730 5731 5732 5733 5735 5735 5734 5735 5737 5737 5736 5736 5737 5737 5737 5737 5736 5737 5737 5738 5738 5738 5738 5738 5737 5737 5737 5736 5736 5735 5734 5734 5733 5733 5732 5732 5731 5730 5729 5728 5726 5725 5724 5723 5722 5720 5719 5718 5716 5715 5714 5712 5711 5708 5705 5703 5701 5700 5698 5695 5692 5689 5687 5685 5682 5679 5677
5738 5736 5736 5736 5737 5737 5737 5735 5733 5731 5731 5732 5734 5736 5735 5733 5731 5730 5728 5728 5729 5731 5733 5734 5734 5736 5736 5735 5734 5733 5734 5734 5734 5733 5733 5733 5734 5734 5734 5734 5734 5733 5733 5732 5732 5732 5731 5731 5730 5730 5730 5729 5728 5728 5728 5727 5725 5723 5722 5721 5720 5719 5717 5716 5715 5714 5712 5711 5709 5708 5706 5704 5701 5698 5696 5694 5693 5691 5688 5685 5683 5681 5678 5675 5672
5737 5736 5735 5735 5735 5736 5736 5735 5733 5731 5731 5732 5733 5733 5732 5731 5731 5731 5729 5727 5727 5729 5730 5732 5733 5734 5734 5732 5731 5731 5731 5731 5731 5730 5729 5729 5729 5729 5729 5729 5729 5729 5728 5728 5728 5728 5727 5726 5726 5726 5726 5725 5725 5724 5724 5722 5720 5718 5718 5717 5716 5715 5713 5712 5711 5710 5708 5706 5705 5703 5702 5700 5697 5694 5691 5689 5687 5685 5683 5681 5678 5676 5674 5671 5668
5735 5736 5735 5735 5735 5735 5734 5733 5732 5732 5732 5732 5731 5730 5729 5728 5728 5729 5728 5726 5726 5727 5728 5728 5728 5729 5729 5728 5728 5728 5729 5728 5727 5726 5725 5725 5725 5724 5724 5724 5724 5725 5725 5725 5725 5724 5723 5722 5722 5721 5721 5721 5720 5720 5720 5718 5716 5714 5714 5713 5711 5710 5709 5708 5707 5705 5703 5702 5700 5698 5697 5695 5692 5690 5687 5685 5683 5681 5679 5676 5674 5672 5669 5666 5664
5733 5734 5734 5734 5733 5734 5733 5731 5730 5729 5729 5729 5728 5728 5727 5726 5725 5725 5724 5723 5724 5725 5726 5725 5725 5724 5724 5725 5725 5726 5725 5725 5724 5723 5722 5721 5720 5719 5720 5721 5722 5721 5721 5721 5720 5719 5718 5718 5717 5717 5716 5716 5715 5716 5716 5715 5712 5710 5710 5709 5707 5706 5705 5703 5702 5700 5698 5697 5695 5693 5692 5690 5688 5685 5683 5681 5679 5677 5674 5672 5669 5667 5664 5662 5659
5733 5733 5733 5731 5730 5731 5731 5729 5728 5727 5726 5725 5725 5725 5726 5726 5724 5723 5723 5722 5722 5723 5723 5723 5722 5721 5721 5722 5722 5723 5723 5723 5723 5722 5721 5719 5717 5717 5717 5719 5718 5717 5716 5716 5715 5715 5714 5713 5713 5712 5712 5712 5711 5711 5712 5711 5708 5707 5706 5705 5703 5702 5701 5699 5697 5695 5693 5691 5690 5688 5686 5685 5683 5680 5678 5676 5674 5672 5669 5667 5664 5662 5659 5657 5654
5729 5729 5729 5729 5728 5728 5727 5726 5724 5724 5723 5723 5723 5723 5723 5723 5723 5721 5720 5720 5721 5720 5720 5720 5718 5717 5717 5718 5718 5719 5719 5719 5718 5718 5716 5716 5715 5715 5715 5715 5713 5713 5714 5713 5712 5711 5709 5709 5709 5708 5708 5707 5706 5706 5707 5706 5704 5702 5701 5700 5699 5697 5695 5694 5692 5690 5688 5686 5684 5683 5681 5679 5677 5675 5673 5671 5669 5667 5664 5662 5659 5657 5654 5652 5649
5724 5724 5724 5724 5724 5723 5722 5721 5720 5720 5720 5721 5721 5720 5720 5719 5719 5718 5717 5717 5718 5719 5718 5717 5716 5714 5714 5715 5715 5715 5716 5715 5714 5713 5711 5711 5711 5712 5712 5711 5711 5711 5711 5711 5710 5707 5705 5705 5705 5704 5703 5702 5701 5700 5701 5701 5699 5698 5696 5694 5693 5692 5690 5688 5686 5684 5682 5680 5679 5677 5676 5674 5672 5670 5668 5666 5664 5662 5659 5657 5654 5652 5649 5647 5644
5721 5720 5719 5719 5719 5718 5717 5717 5716 5716 5716 5717 5718 5718 5718 5717 5716 5716 5715 5716 5716 5716 5715 5714 5713 5712 5713 5712 5712 5713 5713 5711 5710 5709 5707 5707 5707 5708 5707 5707 5708 5708 5707 5706 5705 5703 5701 5701 5701 5699 5697 5696 5695 5694 5695 5694 5694 5693 5691 5689 5687 5686 5684 5683 5681 5679 5677 5675 5674 5672 5671 5669 5667 5665 5663 5661 5658 5656 5654 5651 5649 5646 5644 5641 5638
5717 5716 5715 5715 5714 5714 5714 5714 5713 5713 5713 5713 5713 5714 5714 5714 5713 5713 5713 5713 5713 5712 5710 5709 5708 5709 5708 5707 5707 5708 5708 5706 5705 5704 5703 5703 5704 5703 5702 5703 5704 5704 5703 5702 5700 5698 5697 5696 5696 5694 5692 5691 5690 5689 5689 5688 5687 5687 5687 5685 5682 5680 5679 5677 5675 5673 5672 5671 5669 5667 5666 5664 5662 5660 5658 5655 5653 5650 5648 5646 5643 5640 5638 5636 5632
5713 5713 5712 5711 5710 5709 5709 5709 5709 5709 5708 5708 5709 5709 5709 5708 5709 5709 5708 5708 5708 5707 5706 5704 5705 5705 5704 5703 5702 5703 5703 5702 5702 5701 5700 5700 5700 5700 5699 5700 5700 5700 5699 5698 5697 5694 5692 5692 5691 5690 5688 5686 5685 5684 5683 5682 5681 5680 5680 5679 5677 5676 5674 5672 5670 5668 5668 5667 5665 5662 5660 5658 5656 5654 5652 5650 5647 5645 5643 5640 5638 5635 5632 5630 5627
5709 5709 5708 5707 5706 5706 5705 5705 5704 5704 5704 5704 5704 5704 5704 5704 5704 5704 5703 5703 5703 5702 5701 5700 5701 5701 5700 5699 5698 5698 5698 5697 5696 5696 5696 5696 5697 5697 5696 5696 5696 5695 5694 5693 5691 5689 5687 5687 5687 5686 5683 5682 5681 5679 5677 5676 5675 5674 5673 5672 5671 5670 5669 5667 5664 5663 5662 5660 5659 5657 5654 5652 5650 5648 5646 5643 5641 5639 5637 5635 5633 5630 5628 5625 5621